| time (UTC) | temp F | wind direction | speed MPH | gust MPH | rain 1hr in | rain 24hr in | rain mn in | humidity % | barometer mb |
| 20260508054238 | 56 | 77 | 2.0 | 6.0 | 0.00 | 0.00 | 0.00 | 26 | 1016.3 |
| 20260508053517 | 56 | 85 | 1.0 | 6.0 | 0.00 | 0.00 | 0.00 | 27 | 1016.3 |
| 20260508053016 | 56 | 84 | 2.0 | 4.0 | 0.00 | 0.00 | 0.00 | 27 | 1016.3 |
| 20260508052518 | 57 | 90 | 2.0 | 4.0 | 0.00 | 0.00 | 0.00 | 27 | 1016.3 |
| 20260508052017 | 57 | 92 | 1.0 | 3.0 | 0.00 | 0.00 | 0.00 | 27 | 1016.4 |
| 20260508051513 | 57 | 114 | 1.0 | 3.0 | 0.00 | 0.00 | 0.00 | 27 | 1016.4 |
| 20260508051013 | 57 | 113 | 1.0 | 3.0 | 0.00 | 0.00 | 0.00 | 28 | 1016.4 |
| 20260508050512 | 57 | 111 | 1.0 | 3.0 | 0.00 | 0.00 | 0.00 | 27 | 1016.4 |
| 20260508050013 | 57 | 128 | 1.0 | 3.0 | 0.00 | 0.00 | 0.00 | 27 | 1016.4 |
| 20260508045512 | 58 | 124 | 1.0 | 3.0 | 0.00 | 0.00 | 0.00 | 27 | 1016.3 |
| 20260508045013 | 58 | 94 | 1.0 | 3.0 | 0.00 | 0.00 | 0.00 | 26 | 1016.4 |
| 20260508044512 | 58 | 66 | 1.0 | 3.0 | 0.00 | 0.00 | 0.00 | 26 | 1016.4 |
| 20260508044013 | 58 | 76 | 1.0 | 3.0 | 0.00 | 0.00 | 0.00 | 26 | 1016.4 |
| 20260508043513 | 58 | 92 | 1.0 | 3.0 | 0.00 | 0.00 | 0.00 | 26 | 1016.3 |
| 20260508043008 | 59 | 96 | 1.0 | 3.0 | 0.00 | 0.00 | 0.00 | 26 | 1016.3 |
| 20260508042509 | 59 | 87 | 1.0 | 3.0 | 0.00 | 0.00 | 0.00 | 25 | 1016.2 |
| 20260508042009 | 60 | 82 | 1.0 | 3.0 | 0.00 | 0.00 | 0.00 | 25 | 1016.2 |
| 20260508041509 | 60 | 101 | 1.0 | 3.0 | 0.00 | 0.00 | 0.00 | 24 | 1016.2 |
| 20260508041008 | 60 | 86 | 1.0 | 3.0 | 0.00 | 0.00 | 0.00 | 24 | 1016.3 |
| 20260508040509 | 61 | 85 | 1.0 | 3.0 | 0.00 | 0.00 | 0.00 | 24 | 1016.2 |
| 20260508040008 | 61 | 91 | 1.0 | 3.0 | 0.00 | 0.00 | 0.00 | 24 | 1016.2 |
| 20260508035509 | 62 | 88 | 1.0 | 3.0 | 0.00 | 0.00 | 0.00 | 23 | 1016.2 |
| 20260508035008 | 62 | 96 | 1.0 | 3.0 | 0.00 | 0.00 | 0.00 | 22 | 1016.1 |
| 20260508034508 | 62 | 128 | 1.0 | 2.0 | 0.00 | 0.00 | 0.00 | 20 | 1016.1 |
| 20260508034008 | 63 | 69 | 0.0 | 2.0 | 0.00 | 0.00 | 0.00 | 20 | 1015.9 |
| 20260508033509 | 63 | 333 | 0.0 | 1.0 | 0.00 | 0.00 | 0.00 | 18 | 1015.8 |
| 20260508033008 | 63 | 333 | 0.0 | 2.0 | 0.00 | 0.00 | 0.00 | 18 | 1015.8 |
| 20260508032508 | 63 | 333 | 1.0 | 8.0 | 0.00 | 0.00 | 0.00 | 17 | 1015.6 |
| 20260508032007 | 63 | 298 | 1.0 | 8.0 | 0.00 | 0.00 | 0.00 | 18 | 1015.5 |
| 20260508031504 | 63 | 323 | 0.0 | 3.0 | 0.00 | 0.00 | 0.00 | 21 | 1015.3 |
| 20260508031004 | 64 | 290 | 0.0 | 1.0 | 0.00 | 0.00 | 0.00 | 21 | 1015.5 |
| 20260508030725 | 64 | 149 | 0.0 | 0.0 | 0.00 | 0.00 | 0.00 | 20 | 1015.2 |
| 20260508030003 | 64 | 226 | 0.0 | 2.0 | 0.00 | 0.00 | 0.00 | 19 | 1015.3 |
| 20260508025502 | 64 | 219 | 0.0 | 2.0 | 0.00 | 0.00 | 0.00 | 19 | 1015.2 |
| 20260508025000 | 65 | 288 | 0.0 | 2.0 | 0.00 | 0.00 | 0.00 | 20 | 1015.2 |
| 20260508024721 | 65 | 337 | 0.0 | 2.0 | 0.00 | 0.00 | 0.00 | 20 | 1015.2 |
| 20260508023953 | 65 | 15 | 0.0 | 2.0 | 0.00 | 0.00 | 0.00 | 20 | 1015.2 |
| 20260508023447 | 66 | 99 | 0.0 | 2.0 | 0.00 | 0.00 | 0.00 | 19 | 1015.1 |
| 20260508023203 | 67 | 198 | 0.0 | 1.0 | 0.00 | 0.00 | 0.00 | 19 | 1014.9 |
| 20260508022436 | 67 | 198 | 0.0 | 1.0 | 0.00 | 0.00 | 0.00 | 18 | 1014.9 |
| 20260508021929 | 68 | 199 | 0.0 | 0.0 | 0.00 | 0.00 | 0.00 | 18 | 1014.9 |
| 20260508021423 | 69 | 199 | 0.0 | 0.0 | 0.00 | 0.00 | 0.00 | 17 | 1014.9 |
| 20260508020917 | 69 | 199 | 0.0 | 0.0 | 0.00 | 0.00 | 0.00 | 16 | 1014.8 |
| 20260508020412 | 70 | 199 | 0.0 | 2.0 | 0.00 | 0.00 | 0.00 | 17 | 1014.8 |
| 20260508020129 | 70 | 199 | 1.0 | 6.0 | 0.00 | 0.00 | 0.00 | 15 | 1014.6 |
| 20260508015622 | 70 | 171 | 1.0 | 6.0 | 0.00 | 0.00 | 0.00 | 14 | 1014.6 |
| 20260508014853 | 71 | 217 | 1.0 | 4.0 | 0.00 | 0.00 | 0.00 | 15 | 1014.5 |
| 20260508014346 | 71 | 214 | 2.0 | 6.0 | 0.00 | 0.00 | 0.00 | 15 | 1014.4 |
| 20260508013840 | 71 | 225 | 3.0 | 6.0 | 0.00 | 0.00 | 0.00 | 14 | 1014.4 |
| 20260508013334 | 72 | 206 | 2.0 | 6.0 | 0.00 | 0.00 | 0.00 | 14 | 1014.4 |
| 20260508012828 | 72 | 193 | 2.0 | 7.0 | 0.00 | 0.00 | 0.00 | 13 | 1014.3 |
| 20260508012546 | 72 | 182 | 3.0 | 7.0 | 0.00 | 0.00 | 0.00 | 13 | 1014.2 |
| 20260508012041 | 72 | 184 | 3.0 | 6.0 | 0.00 | 0.00 | 0.00 | 13 | 1014.3 |
| 20260508011309 | 73 | 211 | 3.0 | 8.0 | 0.00 | 0.00 | 0.00 | 13 | 1014.1 |
| 20260508010803 | 73 | 223 | 3.0 | 8.0 | 0.00 | 0.00 | 0.00 | 12 | 1014.2 |
| 20260508010257 | 73 | 178 | 2.0 | 6.0 | 0.00 | 0.00 | 0.00 | 13 | 1014.1 |
| 20260508005751 | 74 | 178 | 2.0 | 7.0 | 0.00 | 0.00 | 0.00 | 13 | 1014.2 |
| 20260508005506 | 74 | 208 | 2.0 | 7.0 | 0.00 | 0.00 | 0.00 | 13 | 1014.2 |
| 20260508005218 | 74 | 165 | 3.0 | 7.0 | 0.00 | 0.00 | 0.00 | 13 | 1014.1 |
| 20260508004234 | 75 | 150 | 4.0 | 11.0 | 0.00 | 0.00 | 0.00 | 12 | 1014.1 |
| 20260508004217 | 75 | 231 | 3.0 | 11.0 | 0.00 | 0.00 | 0.00 | 12 | 1014.2 |
| 20260508003221 | 74 | 257 | 2.0 | 7.0 | 0.00 | 0.00 | 0.00 | 12 | 1014.2 |
| 20260508002716 | 74 | 124 | 3.0 | 7.0 | 0.00 | 0.00 | 0.00 | 12 | 1014.2 |
| 20260508002210 | 75 | 205 | 4.0 | 7.0 | 0.00 | 0.00 | 0.00 | 11 | 1014.2 |
| 20260508001704 | 75 | 225 | 3.0 | 7.0 | 0.00 | 0.00 | 0.00 | 12 | 1014.2 |
| 20260508001424 | 75 | 201 | 2.0 | 6.0 | 0.00 | 0.00 | 0.00 | 12 | 1014.2 |
| 20260508000652 | 76 | 173 | 2.0 | 7.0 | 0.00 | 0.00 | 0.00 | 11 | 1014.2 |
| 20260508000146 | 76 | 180 | 3.0 | 8.0 | 0.00 | 0.00 | 0.00 | 12 | 1014.2 |
| 20260507235640 | 76 | 254 | 3.0 | 8.0 | 0.00 | 0.00 | 0.00 | 11 | 1014.2 |
| 20260507235134 | 77 | 235 | 3.0 | 7.0 | 0.00 | 0.00 | 0.00 | 11 | 1014.2 |
| 20260507234850 | 77 | 213 | 3.0 | 8.0 | 0.00 | 0.00 | 0.00 | 11 | 1014.3 |
| 20260507234121 | 77 | 151 | 3.0 | 8.0 | 0.00 | 0.00 | 0.00 | 10 | 1014.3 |
| 20260507233616 | 77 | 159 | 2.0 | 7.0 | 0.00 | 0.00 | 0.00 | 10 | 1014.4 |
| 20260507233110 | 77 | 193 | 2.0 | 7.0 | 0.00 | 0.00 | 0.00 | 10 | 1014.5 |
| 20260507232604 | 77 | 146 | 2.0 | 7.0 | 0.00 | 0.00 | 0.00 | 10 | 1014.5 |
| 20260507232058 | 78 | 187 | 2.0 | 7.0 | 0.00 | 0.00 | 0.00 | 10 | 1014.4 |
| 20260507231553 | 78 | 242 | 3.0 | 7.0 | 0.00 | 0.00 | 0.00 | 10 | 1014.5 |
| 20260507231046 | 77 | 225 | 3.0 | 8.0 | 0.00 | 0.00 | 0.00 | 11 | 1014.6 |
| 20260507230544 | 77 | 107 | 3.0 | 8.0 | 0.00 | 0.00 | 0.00 | 10 | 1014.8 |
| 20260507230033 | 77 | 275 | 3.0 | 8.0 | 0.00 | 0.00 | 0.00 | 11 | 1014.6 |
| 20260507225527 | 76 | 301 | 3.0 | 8.0 | 0.00 | 0.00 | 0.00 | 11 | 1014.9 |
| 20260507225249 | 77 | 104 | 3.0 | 6.0 | 0.00 | 0.00 | 0.00 | 12 | 1014.9 |
| 20260507224516 | 77 | 130 | 2.0 | 6.0 | 0.00 | 0.00 | 0.00 | 11 | 1015.0 |
| 20260507224229 | 77 | 34 | 2.0 | 9.0 | 0.00 | 0.00 | 0.00 | 10 | 1014.9 |
| 20260507223503 | 78 | 206 | 3.0 | 9.0 | 0.00 | 0.00 | 0.00 | 12 | 1015.0 |
| 20260507222957 | 77 | 139 | 3.0 | 8.0 | 0.00 | 0.00 | 0.00 | 12 | 1015.0 |
| 20260507222452 | 76 | 155 | 2.0 | 4.0 | 0.00 | 0.00 | 0.00 | 15 | 1015.0 |
| 20260507221946 | 76 | 71 | 2.0 | 5.0 | 0.00 | 0.00 | 0.00 | 17 | 1015.1 |
| 20260507221439 | 75 | 355 | 3.0 | 9.0 | 0.00 | 0.00 | 0.00 | 14 | 1015.1 |
| 20260507220934 | 75 | 258 | 3.0 | 9.0 | 0.00 | 0.00 | 0.00 | 14 | 1015.3 |
| 20260507220427 | 75 | 193 | 2.0 | 6.0 | 0.00 | 0.00 | 0.00 | 13 | 1015.5 |
| 20260507215921 | 75 | 73 | 1.0 | 4.0 | 0.00 | 0.00 | 0.00 | 12 | 1015.7 |
| 20260507215637 | 75 | 53 | 2.0 | 4.0 | 0.00 | 0.00 | 0.00 | 13 | 1015.8 |
| 20260507214910 | 75 | 334 | 3.0 | 11.0 | 0.00 | 0.00 | 0.00 | 14 | 1015.9 |
| 20260507214404 | 75 | 246 | 3.0 | 11.0 | 0.00 | 0.00 | 0.00 | 12 | 1015.9 |
| 20260507213858 | 74 | 218 | 2.0 | 9.0 | 0.00 | 0.00 | 0.00 | 16 | 1015.9 |
| 20260507213615 | 74 | 194 | 2.0 | 6.0 | 0.00 | 0.00 | 0.00 | 15 | 1016.2 |
| 20260507212846 | 74 | 113 | 2.0 | 6.0 | 0.00 | 0.00 | 0.00 | 15 | 1016.3 |
| 20260507212340 | 74 | 207 | 2.0 | 5.0 | 0.00 | 0.00 | 0.00 | 16 | 1016.4 |
| 20260507212054 | 73 | 200 | 3.0 | 10.0 | 0.00 | 0.00 | 0.00 | 16 | 1016.4 |
| 20260507211327 | 73 | 233 | 4.0 | 10.0 | 0.00 | 0.00 | 0.00 | 16 | 1016.5 |
| 20260507210821 | 72 | 218 | 3.0 | 10.0 | 0.00 | 0.00 | 0.00 | 16 | 1016.6 |
| 20260507210315 | 73 | 178 | 2.0 | 4.0 | 0.00 | 0.00 | 0.00 | 15 | 1016.8 |
| 20260507205809 | 72 | 247 | 2.0 | 5.0 | 0.00 | 0.00 | 0.00 | 19 | 1016.9 |
| 20260507205306 | 72 | 355 | 2.0 | 5.0 | 0.00 | 0.00 | 0.00 | 16 | 1017.0 |
| 20260507204758 | 71 | 110 | 3.0 | 8.0 | 0.00 | 0.00 | 0.00 | 16 | 1017.1 |
| 20260507204254 | 72 | 289 | 3.0 | 8.0 | 0.00 | 0.00 | 0.00 | 17 | 1017.3 |
| 20260507203746 | 73 | 252 | 2.0 | 8.0 | 0.00 | 0.00 | 0.00 | 17 | 1017.2 |
| 20260507203246 | 71 | 284 | 2.0 | 7.0 | 0.00 | 0.00 | 0.00 | 20 | 1017.2 |
| 20260507202745 | 71 | 263 | 3.0 | 8.0 | 0.00 | 0.00 | 0.00 | 18 | 1017.3 |
| 20260507202247 | 71 | 209 | 3.0 | 8.0 | 0.00 | 0.00 | 0.00 | 19 | 1017.5 |
| 20260507201743 | 71 | 235 | 3.0 | 9.0 | 0.00 | 0.00 | 0.00 | 19 | 1017.6 |
| 20260507201245 | 72 | 221 | 3.0 | 9.0 | 0.00 | 0.00 | 0.00 | 19 | 1017.8 |
| 20260507201008 | 71 | 218 | 2.0 | 7.0 | 0.00 | 0.00 | 0.00 | 17 | 1017.8 |
| 20260507200243 | 71 | 72 | 2.0 | 7.0 | 0.00 | 0.00 | 0.00 | 18 | 1017.8 |
| 20260507195743 | 70 | 322 | 3.0 | 7.0 | 0.00 | 0.00 | 0.00 | 19 | 1017.8 |
| 20260507195244 | 69 | 309 | 3.0 | 9.0 | 0.00 | 0.00 | 0.00 | 18 | 1017.9 |
| 20260507195009 | 70 | 302 | 3.0 | 9.0 | 0.00 | 0.00 | 0.00 | 19 | 1018.0 |
| 20260507194245 | 70 | 94 | 2.0 | 6.0 | 0.00 | 0.00 | 0.00 | 18 | 1018.0 |
| 20260507193740 | 69 | 309 | 3.0 | 7.0 | 0.00 | 0.00 | 0.00 | 19 | 1018.0 |
| 20260507193510 | 70 | 321 | 2.0 | 8.0 | 0.00 | 0.00 | 0.00 | 17 | 1018.3 |
| 20260507192739 | 69 | 275 | 2.0 | 8.0 | 0.00 | 0.00 | 0.00 | 22 | 1018.3 |
| 20260507192240 | 69 | 355 | 2.0 | 9.0 | 0.00 | 0.00 | 0.00 | 19 | 1018.3 |
| 20260507191740 | 69 | 22 | 3.0 | 9.0 | 0.00 | 0.00 | 0.00 | 21 | 1018.4 |
| 20260507191239 | 69 | 167 | 2.0 | 6.0 | 0.00 | 0.00 | 0.00 | 22 | 1018.4 |
| 20260507190739 | 66 | 139 | 2.0 | 6.0 | 0.00 | 0.00 | 0.00 | 22 | 1018.6 |
| 20260507190239 | 67 | 228 | 2.0 | 6.0 | 0.00 | 0.00 | 0.00 | 23 | 1018.6 |
| 20260507185739 | 66 | 244 | 2.0 | 8.0 | 0.00 | 0.00 | 0.00 | 25 | 1018.7 |
| 20260507185235 | 67 | 291 | 2.0 | 8.0 | 0.00 | 0.00 | 0.00 | 22 | 1018.7 |
| 20260507184736 | 66 | 296 | 2.0 | 6.0 | 0.00 | 0.00 | 0.00 | 22 | 1018.9 |
| 20260507184235 | 66 | 60 | 2.0 | 6.0 | 0.00 | 0.00 | 0.00 | 24 | 1019.0 |
| 20260507183735 | 66 | 292 | 1.0 | 4.0 | 0.00 | 0.00 | 0.00 | 25 | 1019.3 |
| 20260507183236 | 66 | 92 | 1.0 | 4.0 | 0.00 | 0.00 | 0.00 | 22 | 1019.5 |
| 20260507182735 | 66 | 90 | 2.0 | 5.0 | 0.00 | 0.00 | 0.00 | 23 | 1019.6 |
| 20260507182236 | 66 | 63 | 2.0 | 5.0 | 0.00 | 0.00 | 0.00 | 24 | 1019.8 |
| 20260507181957 | 65 | 311 | 2.0 | 6.0 | 0.00 | 0.00 | 0.00 | 27 | 1019.8 |
| 20260507181234 | 65 | 308 | 1.0 | 8.0 | 0.00 | 0.00 | 0.00 | 25 | 1019.8 |
| 20260507181211 | 65 | 339 | 2.0 | 8.0 | 0.00 | 0.00 | 0.00 | 24 | 1019.9 |
| 20260507180222 | 63 | 355 | 1.0 | 5.0 | 0.00 | 0.00 | 0.00 | 25 | 1019.9 |
| 20260507175716 | 63 | 91 | 3.0 | 9.0 | 0.00 | 0.00 | 0.00 | 25 | 1020.0 |
| 20260507175211 | 62 | 309 | 4.0 | 9.0 | 0.00 | 0.00 | 0.00 | 26 | 1020.0 |
| 20260507174705 | 63 | 332 | 3.0 | 9.0 | 0.00 | 0.00 | 0.00 | 30 | 1020.0 |
| 20260507174651 | 62 | 5 | 3.0 | 10.0 | 0.00 | 0.00 | 0.00 | 27 | 1020.2 |
| 20260507173653 | 62 | 230 | 4.0 | 10.0 | 0.00 | 0.00 | 0.00 | 26 | 1020.2 |
| 20260507173407 | 62 | 349 | 3.0 | 9.0 | 0.00 | 0.00 | 0.00 | 24 | 1020.3 |
| 20260507172642 | 62 | 331 | 3.0 | 8.0 | 0.00 | 0.00 | 0.00 | 28 | 1020.3 |
| 20260507172139 | 62 | 0 | 3.0 | 7.0 | 0.00 | 0.00 | 0.00 | 29 | 1020.3 |
| 20260507171640 | 61 | 234 | 2.0 | 6.0 | 0.00 | 0.00 | 0.00 | 32 | 1020.4 |
| 20260507171138 | 60 | 207 | 3.0 | 8.0 | 0.00 | 0.00 | 0.00 | 33 | 1020.6 |
| 20260507170636 | 61 | 304 | 3.0 | 8.0 | 0.00 | 0.00 | 0.00 | 34 | 1020.9 |
| 20260507170133 | 60 | 316 | 3.0 | 9.0 | 0.00 | 0.00 | 0.00 | 34 | 1020.9 |
| 20260507165851 | 60 | 337 | 3.0 | 9.0 | 0.00 | 0.00 | 0.00 | 36 | 1020.9 |
| 20260507165129 | 60 | 327 | 3.0 | 8.0 | 0.00 | 0.00 | 0.00 | 36 | 1020.7 |
| 20260507164629 | 60 | 340 | 2.0 | 8.0 | 0.00 | 0.00 | 0.00 | 37 | 1020.9 |
| 20260507164130 | 59 | 36 | 3.0 | 8.0 | 0.00 | 0.00 | 0.00 | 38 | 1020.9 |
| 20260507163629 | 59 | 258 | 3.0 | 8.0 | 0.00 | 0.00 | 0.00 | 39 | 1021.0 |
| 20260507163129 | 59 | 340 | 3.0 | 9.0 | 0.00 | 0.00 | 0.00 | 39 | 1021.0 |
| 20260507162853 | 57 | 87 | 2.0 | 9.0 | 0.00 | 0.00 | 0.00 | 40 | 1021.0 |
| 20260507162347 | 56 | 15 | 2.0 | 5.0 | 0.00 | 0.00 | 0.00 | 38 | 1021.1 |
| 20260507161629 | 56 | 56 | 3.0 | 8.0 | 0.00 | 0.00 | 0.00 | 41 | 1021.2 |
| 20260507161130 | 55 | 298 | 3.0 | 8.0 | 0.00 | 0.00 | 0.00 | 41 | 1021.1 |
| 20260507160629 | 55 | 342 | 3.0 | 8.0 | 0.00 | 0.00 | 0.00 | 43 | 1021.1 |
| 20260507160129 | 54 | 30 | 3.0 | 7.0 | 0.00 | 0.00 | 0.00 | 45 | 1021.1 |
| 20260507155628 | 53 | 61 | 3.0 | 6.0 | 0.00 | 0.00 | 0.00 | 46 | 1021.3 |
| 20260507155127 | 53 | 338 | 2.0 | 5.0 | 0.00 | 0.00 | 0.00 | 48 | 1021.2 |
| 20260507154621 | 52 | 342 | 3.0 | 6.0 | 0.00 | 0.00 | 0.00 | 49 | 1021.3 |
| 20260507154115 | 52 | 18 | 3.0 | 6.0 | 0.00 | 0.00 | 0.00 | 49 | 1021.4 |
| 20260507153609 | 51 | 5 | 3.0 | 8.0 | 0.00 | 0.00 | 0.00 | 52 | 1021.4 |
| 20260507153103 | 51 | 299 | 3.0 | 8.0 | 0.00 | 0.00 | 0.00 | 53 | 1021.4 |
| 20260507153036 | 51 | 66 | 3.0 | 7.0 | 0.00 | 0.00 | 0.00 | 55 | 1021.6 |
| 20260507152050 | 50 | 336 | 3.0 | 7.0 | 0.00 | 0.00 | 0.00 | 56 | 1021.6 |
| 20260507151544 | 49 | 319 | 3.0 | 6.0 | 0.00 | 0.00 | 0.00 | 57 | 1021.4 |
| 20260507151039 | 49 | 20 | 3.0 | 8.0 | 0.00 | 0.00 | 0.00 | 60 | 1021.6 |
| 20260507150532 | 48 | 336 | 4.0 | 8.0 | 0.00 | 0.00 | 0.00 | 62 | 1021.4 |
| 20260507150033 | 48 | 342 | 4.0 | 10.0 | 0.00 | 0.00 | 0.00 | 62 | 1021.6 |
| 20260507145533 | 47 | 348 | 4.0 | 10.0 | 0.00 | 0.00 | 0.00 | 63 | 1021.7 |
| 20260507145033 | 47 | 52 | 3.0 | 9.0 | 0.00 | 0.00 | 0.00 | 65 | 1021.7 |
| 20260507144534 | 46 | 61 | 4.0 | 11.0 | 0.00 | 0.00 | 0.00 | 65 | 1021.8 |
| 20260507144034 | 46 | 351 | 4.0 | 11.0 | 0.00 | 0.00 | 0.00 | 66 | 1021.7 |
| 20260507143533 | 45 | 68 | 4.0 | 10.0 | 0.00 | 0.00 | 0.00 | 67 | 1021.8 |
| 20260507143033 | 45 | 330 | 4.0 | 11.0 | 0.00 | 0.00 | 0.00 | 68 | 1021.8 |
| 20260507142534 | 44 | 325 | 5.0 | 11.0 | 0.00 | 0.00 | 0.00 | 69 | 1021.8 |
| 20260507142259 | 44 | 24 | 5.0 | 11.0 | 0.00 | 0.00 | 0.00 | 70 | 1021.8 |
| 20260507141533 | 43 | 0 | 5.0 | 11.0 | 0.00 | 0.00 | 0.00 | 70 | 1021.8 |
| 20260507141033 | 43 | 335 | 4.0 | 11.0 | 0.00 | 0.00 | 0.00 | 71 | 1021.8 |
| 20260507140533 | 43 | 344 | 4.0 | 10.0 | 0.00 | 0.00 | 0.00 | 71 | 1021.8 |
| 20260507140030 | 42 | 0 | 4.0 | 10.0 | 0.00 | 0.00 | 0.00 | 72 | 1021.8 |
| 20260507135531 | 42 | 48 | 3.0 | 8.0 | 0.00 | 0.00 | 0.00 | 73 | 1021.9 |
| 20260507135031 | 41 | 355 | 3.0 | 9.0 | 0.00 | 0.00 | 0.00 | 74 | 1021.8 |
| 20260507134531 | 41 | 28 | 3.0 | 9.0 | 0.00 | 0.00 | 0.00 | 75 | 1021.8 |
| 20260507134031 | 41 | 22 | 4.0 | 12.0 | 0.00 | 0.00 | 0.00 | 75 | 1021.8 |
| 20260507133530 | 40 | 5 | 4.0 | 12.0 | 0.00 | 0.00 | 0.00 | 76 | 1021.7 |
| 20260507133031 | 40 | 40 | 4.0 | 12.0 | 0.00 | 0.00 | 0.00 | 76 | 1021.4 |
| 20260507132531 | 40 | 17 | 5.0 | 12.0 | 0.00 | 0.00 | 0.00 | 76 | 1021.4 |
| 20260507132031 | 40 | 335 | 4.0 | 11.0 | 0.00 | 0.00 | 0.00 | 77 | 1021.6 |
| 20260507131531 | 39 | 355 | 4.0 | 11.0 | 0.00 | 0.00 | 0.00 | 77 | 1021.6 |
| 20260507131030 | 39 | 24 | 3.0 | 10.0 | 0.00 | 0.00 | 0.00 | 77 | 1021.6 |
| 20260507130531 | 39 | 60 | 3.0 | 9.0 | 0.00 | 0.00 | 0.00 | 77 | 1021.7 |
| 20260507130031 | 39 | 11 | 4.0 | 9.0 | 0.00 | 0.00 | 0.00 | 77 | 1021.6 |
| 20260507125531 | 39 | 355 | 3.0 | 8.0 | 0.00 | 0.00 | 0.00 | 76 | 1021.6 |
| 20260507125032 | 39 | 36 | 2.0 | 6.0 | 0.00 | 0.00 | 0.00 | 76 | 1021.7 |
| 20260507124750 | 39 | 27 | 3.0 | 8.0 | 0.00 | 0.00 | 0.00 | 75 | 1021.4 |
| 20260507124030 | 39 | 28 | 2.0 | 8.0 | 0.00 | 0.00 | 0.00 | 75 | 1021.4 |
| 20260507123524 | 39 | 351 | 2.0 | 5.0 | 0.00 | 0.00 | 0.00 | 75 | 1021.4 |
| 20260507123018 | 39 | 0 | 3.0 | 8.0 | 0.00 | 0.00 | 0.00 | 74 | 1021.4 |
| 20260507122512 | 39 | 0 | 3.0 | 9.0 | 0.00 | 0.00 | 0.00 | 74 | 1021.2 |
| 20260507122006 | 39 | 54 | 3.0 | 9.0 | 0.00 | 0.00 | 0.00 | 74 | 1021.2 |
| 20260507121500 | 39 | 25 | 2.0 | 8.0 | 0.00 | 0.00 | 0.00 | 74 | 1021.2 |
| 20260507120954 | 39 | 35 | 2.0 | 5.0 | 0.00 | 0.00 | 0.00 | 73 | 1021.3 |
| 20260507120448 | 39 | 35 | 2.0 | 5.0 | 0.00 | 0.00 | 0.00 | 73 | 1021.2 |
| 20260507120246 | 39 | 55 | 2.0 | 5.0 | 0.00 | 0.00 | 0.00 | 72 | 1021.2 |
| 20260507120146 | 39 | 50 | 2.0 | 6.0 | 0.00 | 0.00 | 0.00 | 72 | 1021.2 |
| 20260507114936 | 39 | 5 | 2.0 | 6.0 | 0.00 | 0.00 | 0.00 | 71 | 1021.2 |
| 20260507114654 | 39 | 0 | 2.0 | 6.0 | 0.00 | 0.00 | 0.00 | 71 | 1021.2 |
| 20260507113937 | 39 | 355 | 1.0 | 5.0 | 0.00 | 0.00 | 0.00 | 69 | 1021.2 |
| 20260507113437 | 39 | 34 | 2.0 | 9.0 | 0.00 | 0.00 | 0.00 | 68 | 1021.2 |
| 20260507112936 | 39 | 0 | 3.0 | 9.0 | 0.00 | 0.00 | 0.00 | 67 | 1021.0 |
| 20260507112700 | 39 | 10 | 3.0 | 9.0 | 0.00 | 0.00 | 0.00 | 66 | 1021.1 |
| 20260507111935 | 39 | 326 | 2.0 | 5.0 | 0.00 | 0.00 | 0.00 | 65 | 1021.2 |
| 20260507111919 | 40 | 349 | 1.0 | 4.0 | 0.00 | 0.00 | 0.00 | 65 | 1021.1 |
| 20260507110935 | 40 | 340 | 0.0 | 3.0 | 0.00 | 0.00 | 0.00 | 65 | 1021.2 |
| 20260507110434 | 40 | 340 | 1.0 | 3.0 | 0.00 | 0.00 | 0.00 | 65 | 1021.2 |
| 20260507105935 | 40 | 355 | 1.0 | 4.0 | 0.00 | 0.00 | 0.00 | 66 | 1021.1 |
| 20260507105435 | 40 | 69 | 2.0 | 4.0 | 0.00 | 0.00 | 0.00 | 66 | 1021.2 |
| 20260507105156 | 40 | 5 | 2.0 | 5.0 | 0.00 | 0.00 | 0.00 | 66 | 1021.2 |
| 20260507104433 | 40 | 55 | 2.0 | 5.0 | 0.00 | 0.00 | 0.00 | 67 | 1021.1 |
| 20260507103928 | 40 | 9 | 2.0 | 4.0 | 0.00 | 0.00 | 0.00 | 67 | 1021.3 |
| 20260507103429 | 41 | 42 | 2.0 | 4.0 | 0.00 | 0.00 | 0.00 | 67 | 1021.3 |
| 20260507102929 | 41 | 336 | 1.0 | 4.0 | 0.00 | 0.00 | 0.00 | 66 | 1021.2 |
| 20260507102428 | 41 | 50 | 2.0 | 5.0 | 0.00 | 0.00 | 0.00 | 66 | 1021.3 |
| 20260507102128 | 41 | 336 | 3.0 | 5.0 | 0.00 | 0.00 | 0.00 | 65 | 1021.1 |
| 20260507102013 | 41 | 55 | 3.0 | 5.0 | 0.00 | 0.00 | 0.00 | 66 | 1021.1 |
| 20260507100928 | 42 | 25 | 1.0 | 5.0 | 0.00 | 0.00 | 0.00 | 65 | 1021.1 |
| 20260507100429 | 42 | 5 | 1.0 | 4.0 | 0.00 | 0.00 | 0.00 | 64 | 1021.1 |
| 20260507100150 | 42 | 355 | 2.0 | 5.0 | 0.00 | 0.00 | 0.00 | 64 | 1021.0 |
| 20260507095424 | 42 | 355 | 2.0 | 6.0 | 0.00 | 0.00 | 0.00 | 63 | 1021.1 |
| 20260507094924 | 42 | 19 | 3.0 | 8.0 | 0.00 | 0.00 | 0.00 | 62 | 1021.1 |
| 20260507094425 | 43 | 341 | 3.0 | 8.0 | 0.00 | 0.00 | 0.00 | 61 | 1021.0 |
| 20260507093924 | 43 | 0 | 3.0 | 5.0 | 0.00 | 0.00 | 0.00 | 60 | 1020.9 |
| 20260507093425 | 43 | 319 | 2.0 | 5.0 | 0.00 | 0.00 | 0.00 | 58 | 1021.0 |
| 20260507092925 | 44 | 328 | 1.0 | 4.0 | 0.00 | 0.00 | 0.00 | 56 | 1021.0 |
| 20260507092424 | 44 | 338 | 1.0 | 3.0 | 0.00 | 0.00 | 0.00 | 54 | 1021.0 |
| 20260507091924 | 44 | 15 | 1.0 | 4.0 | 0.00 | 0.00 | 0.00 | 53 | 1021.0 |
| 20260507091425 | 44 | 62 | 1.0 | 5.0 | 0.00 | 0.00 | 0.00 | 51 | 1021.0 |
| 20260507090918 | 44 | 49 | 1.0 | 5.0 | 0.00 | 0.00 | 0.00 | 49 | 1021.0 |
| 20260507090412 | 44 | 5 | 1.0 | 3.0 | 0.00 | 0.00 | 0.00 | 44 | 1021.0 |
| 20260507090122 | 45 | 339 | 1.0 | 2.0 | 0.00 | 0.00 | 0.00 | 41 | 1020.9 |
| 20260507085400 | 45 | 335 | 1.0 | 3.0 | 0.00 | 0.00 | 0.00 | 40 | 1020.9 |
| 20260507084853 | 45 | 343 | 2.0 | 5.0 | 0.00 | 0.00 | 0.00 | 40 | 1020.7 |
| 20260507084347 | 45 | 26 | 1.0 | 5.0 | 0.00 | 0.00 | 0.00 | 39 | 1020.6 |
| 20260507083841 | 45 | 329 | 1.0 | 4.0 | 0.00 | 0.00 | 0.00 | 38 | 1020.7 |
| 20260507083335 | 46 | 355 | 1.0 | 3.0 | 0.00 | 0.00 | 0.00 | 38 | 1020.7 |
| 20260507083313 | 46 | 355 | 1.0 | 4.0 | 0.00 | 0.00 | 0.00 | 37 | 1020.7 |
| 20260507082324 | 45 | 345 | 1.0 | 4.0 | 0.00 | 0.00 | 0.00 | 37 | 1020.7 |
| 20260507081818 | 45 | 355 | 1.0 | 4.0 | 0.00 | 0.00 | 0.00 | 37 | 1020.6 |
| 20260507081531 | 45 | 61 | 2.0 | 4.0 | 0.00 | 0.00 | 0.00 | 38 | 1020.7 |
| 20260507080806 | 45 | 49 | 1.0 | 4.0 | 0.00 | 0.00 | 0.00 | 39 | 1020.7 |
| 20260507080301 | 45 | 48 | 1.0 | 4.0 | 0.00 | 0.00 | 0.00 | 39 | 1020.6 |
| 20260507080241 | 46 | 55 | 0.0 | 2.0 | 0.00 | 0.00 | 0.00 | 39 | 1020.6 |
| 20260507075248 | 46 | 55 | 0.0 | 1.0 | 0.00 | 0.00 | 0.00 | 40 | 1020.5 |
| 20260507074742 | 46 | 55 | 0.0 | 1.0 | 0.00 | 0.00 | 0.00 | 39 | 1020.4 |
| 20260507074235 | 46 | 55 | 0.0 | 2.0 | 0.00 | 0.00 | 0.00 | 37 | 1020.3 |
| 20260507073730 | 47 | 54 | 1.0 | 3.0 | 0.00 | 0.00 | 0.00 | 38 | 1020.3 |
| 20260507073224 | 47 | 53 | 1.0 | 3.0 | 0.00 | 0.00 | 0.00 | 37 | 1020.3 |
| 20260507072717 | 47 | 66 | 1.0 | 3.0 | 0.00 | 0.00 | 0.00 | 38 | 1020.3 |
| 20260507072436 | 47 | 59 | 1.0 | 3.0 | 0.00 | 0.00 | 0.00 | 37 | 1020.0 |
| 20260507071717 | 47 | 56 | 1.0 | 2.0 | 0.00 | 0.00 | 0.00 | 38 | 1020.0 |
| 20260507071214 | 47 | 49 | 0.0 | 2.0 | 0.00 | 0.00 | 0.00 | 37 | 1020.0 |
| 20260507070714 | 47 | 15 | 0.0 | 2.0 | 0.00 | 0.00 | 0.00 | 37 | 1019.9 |
| 20260507070214 | 47 | 28 | 1.0 | 3.0 | 0.00 | 0.00 | 0.00 | 39 | 1020.0 |
| 20260507065714 | 47 | 55 | 1.0 | 3.0 | 0.00 | 0.00 | 0.00 | 40 | 1020.0 |
| 20260507065215 | 47 | 49 | 1.0 | 3.0 | 0.00 | 0.00 | 0.00 | 41 | 1019.9 |
| 20260507064936 | 48 | 36 | 0.0 | 2.0 | 0.00 | 0.00 | 0.00 | 41 | 1020.0 |
| 20260507064442 | 48 | 63 | 0.0 | 0.0 | 0.00 | 0.00 | 0.00 | 40 | 1020.0 |
| 20260507063714 | 48 | 63 | 0.0 | 0.0 | 0.00 | 0.00 | 0.00 | 40 | 1020.2 |
| 20260507063214 | 49 | 63 | 0.0 | 0.0 | 0.00 | 0.00 | 0.00 | 39 | 1020.0 |
| 20260507062940 | 49 | 63 | 0.0 | 0.0 | 0.00 | 0.00 | 0.00 | 39 | 1020.0 |
| 20260507062214 | 50 | 63 | 0.0 | 1.0 | 0.00 | 0.00 | 0.00 | 38 | 1020.0 |
| 20260507061712 | 50 | 63 | 0.0 | 1.0 | 0.00 | 0.00 | 0.00 | 38 | 1020.0 |
| 20260507061210 | 51 | 63 | 0.0 | 2.0 | 0.00 | 0.00 | 0.00 | 38 | 1020.0 |
| 20260507060709 | 51 | 63 | 1.0 | 3.0 | 0.00 | 0.00 | 0.00 | 37 | 1019.9 |
| 20260507060206 | 51 | 355 | 1.0 | 3.0 | 0.00 | 0.00 | 0.00 | 36 | 1019.9 |
| 20260507055705 | 51 | 32 | 1.0 | 3.0 | 0.00 | 0.00 | 0.00 | 36 | 1019.7 |
| 20260507055639 | 52 | 330 | 1.0 | 6.0 | 0.00 | 0.00 | 0.00 | 36 | 1019.7 |
| 20260507054653 | 52 | 324 | 1.0 | 6.0 | 0.00 | 0.00 | 0.00 | 36 | 1019.7 |